Кызыл-Кия

Киргизия     40°15′30″N   72°07′20″E
темп.,
°C
ветер,
м/с
пор.,
м/с
влажн.,
%
обл.,
%
осадки,
мм/ч
давл.,
гПа
погр.,
м
21 апреля, ср
ср2100:00+13юв3361100 0.2 1013195
03:00+13ю1256100 0.0 101117
06:00+10ююв1186100 2.6 1013122
09:00+10з3785100 8.9 1015928
12:00+9ююв6778100 20.5 1017350
15:00+12ююз496487 1.5 1015939
18:00+13зюз595596 2.6 10161438
21:00+10ююз576096 0.1 1018157
22 апреля, чт
чт2200:00+9ююв226019 0.1 101926
03:00+8всв116870 0.1 102111
06:00+7ююз117133 0.1 102346
09:00+10з33563 0.0 1024654
12:00+13зсз32473 0.0 10241215
15:00+15сз32392 0.0 10241480
18:00+16сз22371 0.0 10231375
21:00+13вюв22420 0.0 102516
23 апреля, пт
пт2300:00+10ююв33300 0.0 102545
03:00+9ююв43270 0.0 102443
06:00+8ююв33270 0.0 102432
09:00+13ююв12210 0.0 1024249
12:00+17с32260 0.0 10231405
15:00+19с32230 0.0 10211666
18:00+19ссз3223100 0.0 10201288
21:00+15юв22335 0.0 102114
24 апреля, сб
сб2400:00+12ююв33300 0.0 102133
03:00+11ююв33272 0.0 102029
06:00+10ююв4327100 0.0 102030
09:00+15ю1123100 0.0 1020212
12:00+18с2222100 0.0 10191042
15:00+20ссз222162 0.0 10171405
18:00+20сз2221100 0.0 10181136
21:00+17вюв1133100 0.0 102011
25 апреля, вс
вс2500:00+16юв2235100 0.0 102011
03:00+15ю22379 0.0 102014
06:00+13ююв32325 0.0 102018
09:00+18зсз00235 0.0 1021259
12:00+21с32235 0.0 10201178
15:00+24ссз3220100 0.0 10181559
18:00+23ссз212130 0.0 10171142
21:00+18вюв1131100 0.0 101811